Weather History for Teesside, United Kingdom

Change the Weather History Date:

Wednesday, September 18, 2013

  Actual Average Record
Temperature  
Mean Temperature 50 °F -  
Max Temperature 59 °F 58 °F 71 °F (1998)
Min Temperature 42 °F 45 °F 39 °F (2007)
Degree Days  
Heating Degree Days 14    
Moisture  
Dew Point 42 °F    
Average Humidity 68    
Maximum Humidity 87    
Minimum Humidity 55    
Precipitation  
Precipitation 0.00 in - - ()
Sea Level Pressure  
Sea Level Pressure 29.57 in    
Wind  
Wind Speed 9 mph ()    
Max Wind Speed 18 mph    
Max Gust Speed -    
Visibility 6.2 miles    
Events Rain    
Averages and records for this station are not official NWS values.
T = Trace of Precipitation, MM = Missing Value Source: Averaged Metar Reports

Daily Weather History Graph

Daily Weather History Graph

Search for Another Location

Airport:

Trip Planner

Search our weather history database for the weather conditions in past years. The results will help you decide how hot, cold, wet, or windy it might be!

Date:

Astronomy

Sep. 18, 2013 Rise Set
Actual Time 6:44 AM BST 7:14 PM BST
Civil Twilight 6:08 AM BST 7:50 PM BST
Nautical Twilight 5:24 AM BST 8:33 PM BST
Astronomical Twilight 4:38 AM BST 9:18 PM BST
Moon 6:28 PM BST (9/18) 5:24 AM BST (9/18)
Length of Visible Light 13h 42m
Length of Day
12h 30m
Waxing Gibbous, 99% of the Moon is Illuminated
Sep 18
Waxing Gibbous
Sep 19
Full
Sep 27
Last Quarter
Oct 5
New
Oct 12
First Quarter

Hourly Weather History & Observations

Time (BST) Temp. Windchill Dew Point Humidity Pressure Visibility Wind Dir Wind Speed Gust Speed Precip Events Conditions
5:50 AM 42.8 °F - 39.2 °F 87% 29.44 in 6.2 mi Variable 2.3 mph - N/A   Partly Cloudy
6:20 AM 42.8 °F 41.1 °F 39.2 °F 87% 29.47 in 6.2 mi Variable 3.5 mph - N/A   Partly Cloudy
6:50 AM 44.6 °F 43.1 °F 39.2 °F 81% 29.47 in - Variable 3.5 mph - N/A   Clear
7:20 AM 44.6 °F 42.2 °F 41.0 °F 87% 29.47 in - SW 4.6 mph - N/A   Clear
7:50 AM 46.4 °F 42.9 °F 41.0 °F 81% 29.50 in - WSW 6.9 mph - N/A   Clear
8:20 AM 48.2 °F - 42.8 °F 82% 29.50 in - West 6.9 mph - N/A   Clear
8:50 AM 50.0 °F - 42.8 °F 76% 29.50 in - West 8.1 mph - N/A   Clear
9:20 AM 51.8 °F - 42.8 °F 71% 29.53 in 6.2 mi West 6.9 mph - N/A   Partly Cloudy
9:50 AM 53.6 °F - 42.8 °F 67% 29.53 in 6.2 mi West 9.2 mph - N/A   Partly Cloudy
10:20 AM 53.6 °F - 42.8 °F 67% 29.53 in 6.2 mi West 11.5 mph - N/A   Scattered Clouds
10:50 AM 55.4 °F - 42.8 °F 63% 29.53 in 6.2 mi WNW 15.0 mph - N/A   Scattered Clouds
11:20 AM 55.4 °F - 42.8 °F 63% 29.53 in 6.2 mi WNW 15.0 mph - N/A   Scattered Clouds
11:50 AM 55.4 °F - 42.8 °F 63% 29.53 in 6.2 mi West 15.0 mph - N/A   Scattered Clouds
12:20 PM 57.2 °F - 42.8 °F 59% 29.56 in 6.2 mi West 13.8 mph - N/A   Scattered Clouds
12:50 PM 57.2 °F - 42.8 °F 59% 29.56 in 6.2 mi WNW 16.1 mph - N/A   Scattered Clouds
1:20 PM 57.2 °F - 42.8 °F 59% 29.56 in 6.2 mi WNW 16.1 mph - N/A   Scattered Clouds
1:50 PM 57.2 °F - 44.6 °F 63% 29.56 in 6.2 mi West 15.0 mph - N/A   Scattered Clouds
2:20 PM 57.2 °F - 42.8 °F 59% 29.56 in 6.2 mi WNW 13.8 mph - N/A   Scattered Clouds
2:50 PM 59.0 °F - 42.8 °F 55% 29.56 in 6.2 mi West 16.1 mph - N/A   Scattered Clouds
3:20 PM 59.0 °F - 42.8 °F 55% 29.59 in 6.2 mi West 18.4 mph - N/A   Scattered Clouds
3:50 PM 59.0 °F - 42.8 °F 55% 29.59 in 6.2 mi West 18.4 mph - N/A   Scattered Clouds
4:20 PM 59.0 °F - 42.8 °F 55% 29.59 in 6.2 mi West 17.3 mph - N/A   Scattered Clouds
4:50 PM 57.2 °F - 42.8 °F 59% 29.62 in 6.2 mi West 16.1 mph - N/A   Scattered Clouds
5:20 PM 53.6 °F - 44.6 °F 72% 29.62 in 6.2 mi WNW 17.3 mph - N/A Rain Light Rain Showers
5:50 PM 55.4 °F - 44.6 °F 67% 29.65 in 6.2 mi WNW 8.1 mph - N/A   Partly Cloudy
6:20 PM 55.4 °F - 42.8 °F 63% 29.65 in 6.2 mi WNW 11.5 mph - N/A   Partly Cloudy
6:50 PM 55.4 °F - 41.0 °F 58% 29.65 in 6.2 mi WNW 15.0 mph - N/A   Partly Cloudy
7:20 PM 53.6 °F - 42.8 °F 67% 29.68 in 6.2 mi West 9.2 mph - N/A   Partly Cloudy
7:50 PM 51.8 °F - 42.8 °F 71% 29.68 in 6.2 mi West 6.9 mph - N/A   Partly Cloudy
8:20 PM 51.8 °F - 42.8 °F 71% 29.68 in 6.2 mi West 13.8 mph - N/A   Partly Cloudy
8:50 PM 51.8 °F - 42.8 °F 71% 29.71 in 6.2 mi WSW 9.2 mph - N/A   Partly Cloudy
9:50 PM 50.0 °F - 42.8 °F 76% 29.74 in 6.2 mi West 5.8 mph - N/A   Partly Cloudy